When you browse on this site, cookies collect data to enhance your experience and personalize the content and advertising you see.
Visit our Privacy Policy to learn more. By continuing to use the site, you agree to this use of cookies and data.
  • In Schweiz
  • Länderverzeichnis
  • Für 7 Tage
  • Wassertemperatur
  • Satellitenkarten
  • Wetterkarte
  • Widgets
  • user-avatar
    Anmelden

    Stündliche Wetter Adelaide

    Heute, 24 Januar, Donnerstag

    Zeit Temperatur Niederschläge Wind Luftdruck Luftfeuchtigkeit
    00:00 +33°C° 0 mm 4 m/S 752 mmHg 26%
    01:00 +33°C° 0 mm 5 m/S 752 mmHg 25%
    02:00 +33°C° 0 mm 5 m/S 752 mmHg 24%
    03:00 +33°C° 0 mm 5 m/S 751 mmHg 23%
    04:00 +33°C° 0 mm 5 m/S 751 mmHg 23%
    05:00 +34°C° 0 mm 5 m/S 752 mmHg 24%
    06:00 +34°C° 0 mm 5 m/S 752 mmHg 25%
    07:00 +36°C° 0 mm 5 m/S 751 mmHg 22%
    08:00 +39°C° 0 mm 6 m/S 751 mmHg 20%
    09:00 +42°C° 0 mm 6 m/S 751 mmHg 17%
    10:00 +43°C° 0 mm 5 m/S 751 mmHg 16%
    11:00 +45°C° 0 mm 4 m/S 750 mmHg 14%
    12:00 +47°C° 0 mm 4 m/S 750 mmHg 13%
    13:00 +48°C° 0 mm 4 m/S 749 mmHg 13%
    14:00 +47°C° 0 mm 3 m/S 748 mmHg 13%
    15:00 +47°C° 0 mm 3 m/S 748 mmHg 12%
    16:00 +47°C° 0 mm 3 m/S 748 mmHg 13%
    17:00 +46°C° 0 mm 2 m/S 748 mmHg 13%
    18:00 +45°C° 0 mm 2 m/S 747 mmHg 14%
    19:00 +42°C° 0 mm 2 m/S 748 mmHg 17%
    20:00 +39°C° 0 mm 2 m/S 748 mmHg 21%
    21:00 +37°C° 0 mm 3 m/S 748 mmHg 24%
    22:00 +35°C° 0 mm 3 m/S 749 mmHg 28%
    23:00 +34°C° 0 mm 3 m/S 749 mmHg 32%

    Morgen, 25 Januar, Freitag

    Zeit Temperatur Niederschläge Wind Luftdruck Luftfeuchtigkeit
    00:00 +33°C° 0 mm 4 m/S 749 mmHg 36%
    01:00 +31°C° 0 mm 3 m/S 749 mmHg 43%
    02:00 +30°C° 0 mm 3 m/S 749 mmHg 49%
    03:00 +29°C° 0 mm 2 m/S 750 mmHg 56%
    04:00 +29°C° 0 mm 2 m/S 750 mmHg 60%
    05:00 +28°C° 0 mm 2 m/S 751 mmHg 64%
    06:00 +28°C° 0 mm 2 m/S 751 mmHg 68%
    07:00 +29°C° 0 mm 3 m/S 752 mmHg 63%
    08:00 +30°C° 0 mm 3 m/S 752 mmHg 57%
    09:00 +31°C° 0 mm 3 m/S 752 mmHg 52%
    10:00 +31°C° 0 mm 3 m/S 752 mmHg 49%
    11:00 +31°C° 0 mm 3 m/S 753 mmHg 47%
    12:00 +30°C° 0 mm 3 m/S 753 mmHg 44%
    13:00 +30°C° 0 mm 4 m/S 753 mmHg 45%
    14:00 +29°C° 0 mm 4 m/S 753 mmHg 45%
    15:00 +29°C° 0 mm 4 m/S 752 mmHg 45%
    16:00 +28°C° 0 mm 4 m/S 753 mmHg 50%
    17:00 +27°C° 0 mm 4 m/S 753 mmHg 54%
    18:00 +26°C° 0 mm 3 m/S 753 mmHg 58%
    19:00 +25°C° 0 mm 3 m/S 753 mmHg 64%
    20:00 +24°C° 0 mm 3 m/S 754 mmHg 69%
    21:00 +24°C° 0 mm 2 m/S 754 mmHg 75%
    22:00 +22°C° 0 mm 3 m/S 754 mmHg 76%
    23:00 +22°C° 0 mm 3 m/S 754 mmHg 77%

    übermorgen, 26 Januar, Samstag

    Zeit Temperatur Niederschläge Wind Luftdruck Luftfeuchtigkeit
    00:00 +21°C° 0 mm 3 m/S 754 mmHg 78%
    01:00 +21°C° 0 mm 3 m/S 753 mmHg 80%
    02:00 +20°C° 0 mm 3 m/S 753 mmHg 82%
    03:00 +20°C° 0 mm 2 m/S 753 mmHg 84%
    04:00 +20°C° 0 mm 2 m/S 753 mmHg 83%
    05:00 +20°C° 0 mm 2 m/S 753 mmHg 82%
    06:00 +21°C° 0 mm 2 m/S 754 mmHg 81%
    07:00 +24°C° 0 mm 2 m/S 754 mmHg 72%
    08:00 +26°C° 0 mm 2 m/S 754 mmHg 62%
    09:00 +28°C° 0 mm 1 m/S 754 mmHg 52%
    10:00 +28°C° 0 mm 3 m/S 754 mmHg 49%
    11:00 +29°C° 0 mm 4 m/S 754 mmHg 47%
    12:00 +29°C° 0 mm 5 m/S 754 mmHg 44%
    13:00 +29°C° 0 mm 5 m/S 754 mmHg 44%
    14:00 +28°C° 0 mm 5 m/S 754 mmHg 43%
    15:00 +27°C° 0 mm 5 m/S 753 mmHg 43%
    16:00 +26°C° 0.1 mm 5 m/S 754 mmHg 49%
    17:00 +25°C° 0.1 mm 5 m/S 754 mmHg 54%
    18:00 +23°C° 0.1 mm 5 m/S 755 mmHg 59%
    19:00 +22°C° 0 mm 4 m/S 755 mmHg 64%
    20:00 +21°C° 0 mm 4 m/S 755 mmHg 68%
    21:00 +20°C° 0 mm 4 m/S 756 mmHg 73%
    22:00 +20°C° 0 mm 4 m/S 756 mmHg 71%
    23:00 +20°C° 0 mm 4 m/S 756 mmHg 69%

    27 Januar, Sonntag

    Zeit Temperatur Niederschläge Wind Luftdruck Luftfeuchtigkeit
    00:00 +19°C° 0 mm 4 m/S 756 mmHg 68%
    01:00 +19°C° 0 mm 3 m/S 756 mmHg 71%
    02:00 +19°C° 0 mm 3 m/S 755 mmHg 74%
    03:00 +18°C° 0 mm 3 m/S 755 mmHg 77%
    04:00 +18°C° 0 mm 3 m/S 756 mmHg 76%
    05:00 +18°C° 0 mm 3 m/S 756 mmHg 75%
    06:00 +18°C° 0 mm 2 m/S 757 mmHg 74%
    07:00 +19°C° 0 mm 3 m/S 757 mmHg 67%
    08:00 +21°C° 0 mm 3 m/S 757 mmHg 59%
    09:00 +22°C° 0 mm 3 m/S 758 mmHg 52%
    10:00 +24°C° 0 mm 3 m/S 757 mmHg 49%
    11:00 +25°C° 0 mm 3 m/S 757 mmHg 45%
    12:00 +27°C° 0 mm 4 m/S 757 mmHg 42%
    13:00 +27°C° 0 mm 4 m/S 757 mmHg 43%
    14:00 +27°C° 0 mm 4 m/S 756 mmHg 43%
    15:00 +27°C° 0 mm 4 m/S 756 mmHg 44%
    16:00 +26°C° 0 mm 4 m/S 756 mmHg 46%
    17:00 +25°C° 0 mm 4 m/S 756 mmHg 49%
    18:00 +23°C° 0 mm 4 m/S 756 mmHg 51%
    19:00 +22°C° 0 mm 4 m/S 757 mmHg 56%
    20:00 +20°C° 0 mm 4 m/S 757 mmHg 61%
    21:00 +19°C° 0 mm 4 m/S 758 mmHg 66%
    22:00 +19°C° 0 mm 3 m/S 758 mmHg 69%
    23:00 +18°C° 0 mm 3 m/S 757 mmHg 72%

    28 Januar, Montag

    Zeit Temperatur Niederschläge Wind Luftdruck Luftfeuchtigkeit
    00:00 +17°C° 0 mm 3 m/S 757 mmHg 75%
    01:00 +17°C° 0 mm 2 m/S 757 mmHg 76%
    02:00 +17°C° 0 mm 2 m/S 757 mmHg 77%
    03:00 +16°C° 0 mm 2 m/S 757 mmHg 78%
    04:00 +18°C° 0 mm 1 m/S 757 mmHg 75%
    05:00 +18°C° 0 mm 1 m/S 757 mmHg 72%
    06:00 +19°C° 0 mm 1 m/S 757 mmHg 69%
    07:00 +21°C° 0 mm 1 m/S 757 mmHg 60%
    08:00 +23°C° 0 mm 2 m/S 757 mmHg 51%
    09:00 +26°C° 0 mm 2 m/S 758 mmHg 41%
    10:00 +27°C° 0 mm 3 m/S 757 mmHg 37%
    11:00 +28°C° 0 mm 3 m/S 757 mmHg 34%
    12:00 +29°C° 0 mm 3 m/S 756 mmHg 30%
    13:00 +29°C° 0 mm 4 m/S 756 mmHg 29%
    14:00 +30°C° 0 mm 4 m/S 756 mmHg 29%
    15:00 +30°C° 0 mm 4 m/S 755 mmHg 28%
    16:00 +29°C° 0 mm 4 m/S 756 mmHg 32%
    17:00 +28°C° 0 mm 3 m/S 756 mmHg 35%
    18:00 +27°C° 0 mm 3 m/S 756 mmHg 39%
    19:00 +25°C° 0 mm 3 m/S 756 mmHg 48%
    20:00 +22°C° 0 mm 3 m/S 757 mmHg 58%
    21:00 +20°C° 0 mm 3 m/S 757 mmHg 67%
    22:00 +20°C° 0 mm 3 m/S 757 mmHg 71%
    23:00 +19°C° 0 mm 3 m/S 757 mmHg 74%

    29 Januar, Dienstag

    Zeit Temperatur Niederschläge Wind Luftdruck Luftfeuchtigkeit
    00:00 +19°C° 0 mm 3 m/S 757 mmHg 78%
    01:00 +18°C° 0 mm 3 m/S 757 mmHg 79%
    02:00 +18°C° 0 mm 2 m/S 757 mmHg 80%
    03:00 +18°C° 0 mm 2 m/S 756 mmHg 80%
    04:00 +18°C° 0 mm 2 m/S 757 mmHg 79%
    05:00 +18°C° 0 mm 2 m/S 757 mmHg 77%
    06:00 +19°C° 0 mm 2 m/S 757 mmHg 75%
    07:00 +23°C° 0 mm 2 m/S 757 mmHg 63%
    08:00 +26°C° 0 mm 1 m/S 758 mmHg 50%
    09:00 +29°C° 0 mm 1 m/S 758 mmHg 37%
    10:00 +31°C° 0 mm 1 m/S 757 mmHg 33%
    11:00 +34°C° 0 mm 2 m/S 757 mmHg 28%
    12:00 +36°C° 0 mm 2 m/S 756 mmHg 24%
    13:00 +36°C° 0 mm 3 m/S 755 mmHg 24%
    14:00 +36°C° 0 mm 3 m/S 755 mmHg 24%
    15:00 +36°C° 0 mm 4 m/S 754 mmHg 25%
    16:00 +34°C° 0 mm 4 m/S 754 mmHg 28%
    17:00 +33°C° 0 mm 4 m/S 754 mmHg 32%
    18:00 +30°C° 0 mm 4 m/S 754 mmHg 36%
    19:00 +28°C° 0 mm 4 m/S 755 mmHg 41%
    20:00 +26°C° 0 mm 4 m/S 755 mmHg 46%
    21:00 +25°C° 0 mm 4 m/S 755 mmHg 51%
    22:00 +24°C° 0 mm 3 m/S 755 mmHg 52%
    23:00 +24°C° 0 mm 2 m/S 755 mmHg 52%
    Mehr zeigen